Regional Weather Roundup
Issued by NWS Sioux Falls, SD

Home | Current Version | Previous Version | Text Only | Print | Product List | Glossary On
Versions: 1 2 3 4 5 6 7 8 9 10 11 12 13 14 15 16 17 18 19 20 21 22 23 24 25 26 27 28 29 30 31 32 33 34 35 36 37 38 39 40 41 42 43 44 45 46 47 48 49 50
000
ASUS43 KFSD 291910
RWRFSD

WEATHER ROUNDUP FOR SE SOUTH DAKOTA/SW MINNESOTA/NW IOWA
NATIONAL WEATHER SERVICE SIOUX FALLS SD
200 PM CDT SAT AUG 29 2015

NOTE: "FAIR" INDICATES FEW OR NO CLOUDS BELOW 12,000 FEET WITH NO
SIGNIFICANT WEATHER AND OR OBSTRUCTIONS TO VISIBILITY.


SDZ038>040-050-052>070-292000-
SOUTHEAST SOUTH DAKOTA

CITY           SKY/WX    TMP DP  RH WIND       PRES   REMARKS
BROOKINGS      PTSUNNY   73  63  68 S10       30.05F
CHAMBERLAIN    SUNNY     81  69  66 S5        29.99F
HURON          SUNNY     81  68  64 S14       29.97F
MADISON        FAIR      73  66  78 S9        30.05F
MITCHELL       MOSUNNY   78  68  71 S13       30.01F
SIOUX FALLS    PTSUNNY   69  61  75 SW7       30.06F
WINNER         FAIR      85  64  49 S7        30.01F
YANKTON        PTSUNNY   70  63  78 E7        30.04F
$$

MNZ071-072-080-081-089-090-097-098-292000-
SOUTHWEST MINNESOTA

CITY           SKY/WX    TMP DP  RH WIND       PRES   REMARKS
FAIRMONT       CLOUDY    64  57  77 E6        30.07S
JACKSON        SUNNY     72  63  73 S5        30.07S
LUVERNE        SUNNY     70  61  73 SW3       30.07F
MARSHALL       MOSUNNY   75  61  60 S8        30.05S
MONTEVIDEO     MOSUNNY   75  63  64 SW6       30.04S
PIPESTONE      MOSUNNY   72  63  73 SW8       30.06F
REDWOOD FALLS  SUNNY     72  62  71 S6        30.03F
TRACY          SUNNY     75  64  68 SW7       30.04F
WINDOM         SUNNY     73  63  68 SE3       30.05F
WORTHINGTON    SUNNY     72  63  73 S5        30.06F
$$

IAZ001>003-012>014-020>022-031-032-NEZ013-014-SDZ071-292000-
NORTHWEST IOWA

CITY           SKY/WX    TMP DP  RH WIND       PRES   REMARKS
CHEROKEE       CLOUDY    66  62  89 CALM      30.08S
DENISON        CLOUDY    66  63  88 CALM      30.06F
ESTHERVILLE    PTSUNNY   69  63  81 VRB5      30.06F
LE MARS        CLOUDY    66  61  82 CALM      30.08F
ORANGE CITY    PTSUNNY   66  63  88 CALM      30.07F
SHELDON        MOSUNNY   68  63  83 S7        30.06S
SIOUX CITY     MOSUNNY   69  61  75 VRB3      30.07F
SPENCER        SUNNY     69  61  75 S5        30.07F HAZE
STORM LAKE     MOSUNNY   64  61  88 CALM      30.08F
$$

ABBREVIATIONS USED IN REMARKS
   TC - TEMPERATURE IN CELSIUS
  WCI - WIND CHILL INDEX
   HX - HEAT INDEX
  VSB - VISIBILITY




USA.gov is the U.S. government's official web portal to all federal, state and local government web resources and services.